Vorticity
6 6 6 6 6 7 7 8 8 7 5 4 4 5 7 9 11 12 11 10 8 6 5 8 14 17 15 10 7 5 4 2 2 7 8 11 14 6 5 7 7 10 12 11 4 4 7 6 7 6 4 6 7 9 8 4 7 3 -1 7 9 10 10 5 5 4 4 6 13 15 8 9 9 4 7 8 6 8 7 7 11 11 4 4 6 6 8 8
6 7 6 6 6 6 6 6 7 8 8 7 6 4 4 5 8 11 12 12 11 9 7 5 7 12 17 16 12 8 6 4 1 2 8 9 7 4 3 6 9 8 8 10 6 2 4 6 8 7 4 5 6 8 4 1 6 4 4 11 9 4 5 9 6 3 2 2 13 16 5 5 10 6 6 8 7 7 8 8 10 8 7 9 7 6 8 7
7 7 7 7 7 7 6 6 6 6 7 8 8 7 5 5 5 6 9 12 13 12 10 8 6 6 11 16 17 13 8 7 3 -1 4 6 5 6 5 5 7 8 7 7 6 3 3 8 10 7 5 5 5 8 6 4 3 5 8 4 3 0 1 8 7 5 -1 -3 10 13 10 7 7 9 7 9 12 12 11 9 11 9 9 11 6 6 10 10
5 5 5 6 6 7 7 7 7 6 7 7 8 9 8 7 5 5 5 8 11 12 13 12 9 7 6 9 14 18 14 9 6 2 2 3 4 5 7 7 5 6 9 7 6 4 4 9 9 6 6 4 4 8 7 7 3 4 6 -0 -2 -5 -2 6 4 7 -1 -3 8 8 18 14 3 13 12 7 9 13 15 7 7 9 10 10 4 7 13 14
3 3 4 5 5 5 6 6 7 6 6 6 6 7 8 9 8 6 5 5 6 8 11 14 13 10 7 6 7 14 18 15 11 6 4 3 2 4 7 8 6 7 9 7 7 5 5 8 7 6 7 5 6 11 8 4 4 2 5 6 3 -8 -10 -2 -2 3 -3 -2 4 2 19 15 0 14 14 8 7 7 11 5 5 9 10 10 6 7 11 13
4 4 5 6 6 6 6 6 7 7 7 7 6 6 6 8 9 9 8 6 5 5 6 10 13 13 10 9 6 7 12 18 18 11 7 5 3 3 5 6 5 6 8 7 7 6 7 7 5 4 6 6 7 10 6 5 7 -1 0 6 6 -1 -8 -6 -4 -3 -6 -3 2 -0 14 13 0 8 6 7 10 7 9 8 7 8 9 13 10 7 7 12
4 5 5 5 5 5 5 5 5 6 7 7 7 7 6 6 7 8 9 9 7 5 5 5 8 11 11 12 10 6 6 12 19 18 12 8 5 2 2 5 6 6 8 9 7 6 8 9 4 3 6 6 6 7 5 5 5 -4 -3 -0 -0 2 2 1 -1 -1 -3 -3 0 -1 8 13 3 3 4 4 7 8 12 13 9 7 9 15 13 8 7 10
5 4 4 4 4 4 4 4 4 5 5 7 7 7 8 7 6 6 7 9 9 7 6 6 5 6 8 10 12 10 7 8 12 18 18 11 7 5 2 2 5 8 8 9 10 5 5 9 6 3 4 4 4 6 6 5 5 0 -1 -1 -2 -1 -5 -10 -10 -4 -1 -3 1 0 3 12 4 0 7 9 10 10 9 10 10 10 9 13 15 9 7 10
6 5 5 5 5 5 5 5 4 5 5 6 6 7 8 7 7 6 6 6 8 8 7 8 7 6 6 6 9 9 10 9 8 13 20 19 11 7 7 3 3 8 8 8 10 8 8 9 5 3 2 1 3 3 3 4 4 1 -2 -0 -1 -4 -9 -14 -12 -9 -5 -0 2 -1 2 8 5 3 7 9 12 11 9 10 11 12 8 9 14 11 9 11
7 6 6 6 6 6 5 5 5 5 5 6 6 6 6 7 7 7 7 6 6 7 7 8 7 7 6 6 7 8 11 11 9 10 14 20 19 11 9 8 6 5 7 8 7 10 15 11 4 4 4 2 3 1 2 5 1 -4 -3 1 0 -1 -2 -3 1 -2 -4 4 2 0 4 6 5 5 7 7 5 7 11 12 9 10 9 7 10 13 10 9
8 8 7 7 7 7 6 6 5 5 4 5 6 6 6 6 6 6 8 8 7 6 6 7 7 7 6 7 7 7 10 8 8 11 10 15 20 17 10 8 10 7 5 6 6 10 14 13 4 0 5 6 6 1 1 4 0 -2 1 3 6 6 3 4 13 9 3 5 2 1 2 5 8 4 7 8 -0 0 6 9 10 9 9 9 9 12 10 6
8 8 8 8 8 8 8 7 7 6 5 5 5 5 5 4 4 4 7 6 7 8 7 7 7 7 6 7 9 7 8 7 5 9 9 11 16 20 17 8 8 9 7 6 6 8 9 10 6 4 6 5 7 5 3 3 -1 0 1 2 9 9 5 13 21 13 5 4 1 1 3 8 10 2 4 4 -4 -0 1 4 12 10 9 11 9 11 12 7
8 8 8 8 8 8 8 8 8 8 7 7 6 5 4 4 3 3 4 4 5 7 9 9 7 7 5 6 9 7 8 8 6 7 8 11 12 15 19 15 8 5 7 8 8 7 6 5 7 13 8 1 6 7 5 5 1 2 2 1 4 3 9 22 20 7 4 3 1 6 7 6 1 -3 4 5 3 7 1 0 11 11 8 10 9 9 12 8
6 7 7 7 7 7 7 7 7 7 8 8 7 7 5 5 5 4 4 3 3 4 6 8 8 8 5 5 9 9 9 7 4 5 7 9 9 8 13 18 16 8 6 7 8 7 5 3 9 15 9 5 6 3 7 7 4 4 3 3 2 1 15 23 9 1 8 4 0 6 2 -2 -2 -1 6 11 15 12 1 1 10 11 7 8 9 8 10 10
6 5 5 5 5 5 5 5 6 6 7 6 6 6 5 7 7 6 5 5 4 4 4 4 7 8 6 5 7 7 7 5 5 7 6 6 7 7 8 13 18 16 10 5 5 7 5 1 7 11 12 14 4 -1 9 8 6 8 5 6 2 4 17 18 9 9 13 4 -1 4 1 2 5 0 3 12 17 14 10 12 10 5 6 8 9 10 9 9
5 6 6 5 5 5 4 4 4 5 5 5 6 5 4 6 6 6 6 6 6 6 6 5 5 5 6 7 6 4 4 6 10 9 5 6 8 7 7 10 14 18 17 11 6 4 3 1 5 9 12 15 5 2 8 4 5 8 10 11 1 9 18 10 11 10 6 4 2 2 1 4 4 -0 3 11 16 14 15 19 7 -2 4 7 8 12 10 8
2 3 4 5 5 6 5 5 5 5 5 4 5 5 5 7 7 6 5 5 6 6 6 7 7 5 5 5 5 6 5 6 9 7 3 5 9 8 8 9 8 12 16 15 12 7 3 1 3 6 8 12 12 9 5 6 11 6 12 14 0 11 16 5 10 8 3 3 -0 -3 -6 -3 2 1 4 13 17 12 13 19 10 1 5 6 6 11 12 9
4 2 2 3 4 5 5 6 5 5 6 5 5 5 4 6 7 7 6 6 6 5 6 6 7 8 6 5 5 7 7 5 6 7 6 4 7 9 9 8 6 7 9 11 15 14 11 9 6 4 5 9 13 10 4 12 17 5 8 11 2 11 11 5 12 7 -0 -1 -3 -2 -5 -4 2 0 1 7 9 2 2 10 12 9 9 8 7 8 11 12
7 5 5 4 3 4 4 5 5 5 5 5 5 5 5 6 5 6 6 7 7 6 5 6 7 8 6 6 6 4 5 7 7 8 9 4 2 5 8 8 8 8 9 9 13 15 14 15 13 9 7 7 8 7 5 13 13 2 6 7 1 10 7 6 18 6 -5 0 4 -0 -6 -4 0 -2 -3 2 5 2 -3 1 10 13 11 14 12 6 9 12
7 6 6 5 4 4 4 3 4 5 5 4 4 5 5 6 5 4 3 5 7 6 6 6 7 7 7 7 5 4 4 5 6 6 9 7 3 3 5 7 8 9 9 10 12 12 12 14 17 18 12 6 5 6 7 16 15 2 6 8 3 9 5 7 21 8 -7 3 8 -1 -6 -4 -2 -2 -2 1 6 5 -0 1 14 16 7 13 13 6 7 11
8 7 6 6 5 3 3 2 3 4 4 4 4 5 4 5 6 5 3 4 6 6 5 7 7 8 10 7 4 5 6 7 9 6 8 9 6 6 5 4 5 7 9 9 8 7 8 12 20 23 18 10 5 6 6 13 20 8 3 9 8 7 4 7 17 6 -7 2 5 -1 1 0 -5 -4 -3 -1 1 3 5 3 15 19 6 7 11 9 8 7
7 8 7 7 7 5 4 3 4 4 4 3 4 5 5 4 4 4 4 4 7 6 1 3 6 5 6 6 7 6 4 8 9 6 7 6 7 9 5 3 4 6 8 7 5 6 5 9 20 23 20 15 8 7 6 7 18 15 4 6 9 6 3 7 13 5 -6 -3 2 2 4 3 -3 -6 -4 -1 -6 -2 10 7 11 19 10 8 12 11 11 8
6 6 6 7 8 8 7 5 6 6 4 4 4 5 6 7 5 3 3 2 7 9 4 3 4 2 4 7 8 6 3 8 6 5 9 6 7 8 5 7 8 7 7 6 6 8 4 5 15 18 18 19 13 8 7 4 12 16 8 5 10 10 7 8 12 8 -4 -9 -2 0 -3 -1 1 1 4 1 -8 -4 10 12 12 13 8 13 14 7 9 11
7 5 4 5 7 9 8 6 7 7 5 5 6 5 6 6 5 4 5 2 3 8 10 10 5 3 6 5 5 4 4 9 8 8 9 7 7 6 6 8 7 8 8 6 7 8 6 4 5 7 11 17 17 13 9 5 7 13 11 9 13 14 11 14 9 -1 -3 -4 -2 -1 -6 -2 6 9 7 0 -1 1 5 9 10 6 4 12 17 9 7 12
7 6 4 5 5 8 9 7 6 7 7 6 7 8 6 5 4 3 5 6 2 0 7 12 7 4 4 3 6 7 4 6 9 8 5 5 6 5 5 4 5 10 11 7 6 6 7 7 5 4 6 11 15 16 14 9 6 7 7 13 21 17 13 19 3 -15 -4 4 1 1 -2 -3 2 7 5 0 5 2 1 13 11 3 4 10 19 16 6 10
6 6 5 5 5 6 10 8 6 7 7 7 7 8 8 6 7 4 4 8 3 -2 2 6 7 8 5 3 5 6 4 6 7 5 4 7 7 6 5 4 7 10 8 6 6 9 10 7 6 5 5 8 9 15 18 13 9 8 10 16 23 15 8 18 9 -8 1 4 -0 3 -0 -3 -1 4 6 1 1 -2 3 20 12 2 7 8 17 21 8 6
6 6 5 6 4 4 8 9 7 6 6 8 8 8 9 8 8 7 7 8 4 2 5 2 3 9 8 5 6 7 9 8 6 4 7 11 10 9 7 8 10 8 8 6 5 15 18 9 7 7 6 7 5 15 23 16 13 16 14 15 21 17 7 17 19 7 6 2 -1 4 4 4 1 2 6 0 -2 3 13 20 4 -3 9 6 10 23 17 6
8 7 4 6 5 2 5 9 7 5 6 7 7 7 8 8 9 8 8 10 7 7 9 5 2 5 7 8 6 7 9 8 8 8 7 5 4 5 6 7 10 10 8 6 4 10 12 8 9 6 7 8 5 14 21 14 14 19 12 9 24 25 8 12 16 5 3 -1 -4 3 4 -0 -4 -1 4 4 9 13 16 12 -5 -4 11 7 5 17 20 11
10 9 6 5 7 4 3 7 7 5 6 6 7 7 6 7 8 7 8 9 8 8 11 10 6 3 6 11 8 6 8 8 7 8 7 8 8 7 7 6 8 8 7 8 9 6 3 8 10 5 8 11 6 9 13 11 15 20 10 3 22 28 10 6 6 0 2 -4 -8 3 4 -7 -9 -2 2 9 24 22 9 0 -7 1 9 5 5 11 17 15
12 13 10 5 7 8 4 6 6 5 7 7 7 7 6 7 6 7 9 8 5 8 11 11 9 5 3 7 9 8 9 9 7 6 5 7 7 5 5 4 2 3 2 5 10 8 2 4 6 6 10 10 7 6 5 8 15 19 11 1 12 23 13 2 -1 4 1 -12 -9 4 7 -2 -5 8 6 -2 11 14 3 -1 -4 1 4 3 9 10 13 15
12 14 15 8 7 8 6 8 7 3 6 7 6 6 6 6 6 8 9 5 5 8 8 8 8 7 4 5 7 5 5 7 8 7 6 4 2 2 4 5 6 6 4 5 12 13 6 3 4 7 10 9 8 8 5 6 11 15 16 8 5 17 20 4 -2 3 -12 -20 1 13 10 -2 -12 10 16 -5 -3 4 1 2 -2 1 4 4 8 7 8 13
9 11 15 13 10 7 5 9 10 4 3 6 7 5 5 7 7 8 6 1 5 8 7 7 7 6 6 5 7 10 7 4 4 5 5 3 2 2 3 5 8 9 9 10 14 14 10 9 9 7 9 9 6 9 9 8 8 9 14 14 6 10 15 3 -4 -6 -23 -20 11 22 11 -12 -27 -0 18 0 -1 6 8 6 -2 1 8 4 5 7 6 9
6 7 9 13 13 8 4 7 10 8 4 6 9 6 4 8 7 6 5 2 5 8 5 6 6 6 6 4 5 9 9 7 7 5 3 3 2 1 -1 -1 1 1 3 4 6 9 8 8 10 6 8 9 7 9 6 7 12 11 13 16 12 8 6 5 6 -2 -14 -10 12 23 10 -15 -26 -2 18 8 1 7 15 12 1 6 13 5 4 6 5 6
8 8 7 10 12 9 6 6 8 9 6 6 10 9 7 8 6 5 4 3 6 7 5 4 6 6 7 6 4 5 6 7 8 6 5 7 5 4 1 -3 -3 -0 3 3 2 4 3 3 9 9 9 11 11 10 7 7 10 12 19 18 14 14 8 11 13 1 -3 1 8 16 5 -14 -18 -7 8 10 2 5 13 9 4 7 5 -0 4 5 3 6
11 11 9 9 10 9 7 5 5 8 7 6 7 10 10 7 4 6 6 5 6 6 4 4 5 6 7 7 6 5 4 3 5 5 5 6 5 4 3 1 2 3 4 6 7 7 5 6 11 9 7 9 9 9 10 10 6 9 16 10 11 23 18 13 12 5 4 4 5 10 -1 -10 -8 -8 2 5 -3 2 8 6 7 4 -1 -1 1 2 2 3
11 12 12 12 11 9 8 6 5 6 8 7 5 6 9 6 2 6 7 6 7 7 6 5 5 6 6 7 6 6 5 4 5 5 3 5 4 3 3 3 5 6 6 7 6 7 7 10 14 11 7 8 8 8 7 7 8 11 10 3 10 26 22 15 15 12 7 -2 1 13 5 -3 -2 -3 7 9 -2 -0 1 3 8 3 5 8 -2 -3 3 4
8 9 12 15 14 11 11 9 7 7 8 8 6 5 8 7 5 7 6 6 6 6 6 6 6 6 5 5 6 6 7 6 5 5 4 4 5 5 6 6 4 3 4 5 4 6 5 4 7 9 10 11 10 10 7 3 5 8 7 7 14 20 18 16 14 15 12 -5 -3 16 12 2 1 -1 6 10 5 5 1 1 5 2 7 14 8 -1 0 5
8 7 11 15 14 14 14 13 10 10 8 8 8 9 8 8 9 9 7 6 6 6 6 5 6 6 5 5 5 5 6 6 5 5 3 4 7 7 7 8 7 6 6 7 6 6 6 5 2 2 5 9 9 8 8 5 3 4 5 7 11 10 12 15 11 15 20 3 -4 12 14 9 10 7 7 10 6 5 5 3 2 2 4 12 19 13 4 11
9 5 12 15 12 13 17 16 14 12 10 9 10 11 11 10 10 9 7 7 6 7 7 7 5 4 4 6 7 7 5 5 6 6 4 4 5 4 1 0 0 1 1 3 4 5 9 9 7 7 5 5 5 5 5 5 4 5 4 3 4 3 7 12 8 12 23 13 1 8 14 17 21 15 9 13 11 4 3 4 3 3 2 4 15 16 8 11
10 4 15 18 9 10 16 19 18 14 13 13 11 11 12 10 10 10 9 8 7 7 7 7 8 7 5 5 7 7 6 5 5 5 5 5 4 4 3 2 3 3 1 0 1 3 8 9 7 8 6 2 -0 -0 3 6 7 7 5 4 3 2 4 7 5 8 14 12 11 10 7 13 23 20 14 15 17 9 1 2 5 5 4 7 12 13 7 4
12 8 19 19 7 8 15 19 21 16 14 15 13 12 11 10 10 10 9 9 8 8 7 7 7 8 8 7 6 5 4 5 5 5 6 9 9 5 2 1 4 7 9 8 4 0 5 12 9 3 2 5 6 4 4 7 9 8 7 7 6 5 6 2 1 6 5 2 8 4 -2 10 23 21 22 22 20 19 11 7 13 14 8 6 6 7 4 -0
20 17 24 18 7 9 14 19 23 19 17 17 15 13 12 12 13 12 11 10 9 8 8 9 8 8 8 7 5 4 3 5 7 5 5 8 7 2 2 4 2 2 4 5 5 0 -5 -1 4 3 3 7 9 9 7 6 8 8 7 8 7 6 8 3 -1 4 6 4 7 1 -3 13 24 19 24 30 26 24 22 18 18 15 5 -1 2 5 1 -3
30 28 34 29 16 12 17 25 26 22 19 18 17 17 17 16 16 15 14 12 11 11 10 9 8 8 7 7 7 6 5 6 7 5 5 7 4 2 5 6 4 5 5 3 7 7 -2 -3 3 4 4 6 7 8 8 6 6 5 3 5 6 4 6 5 1 2 5 5 8 7 2 8 18 15 14 25 30 25 26 27 17 5 0 2 5 4 -1 -3
35 32 40 45 33 20 22 30 32 28 25 23 22 20 18 18 17 16 16 14 14 13 12 9 8 8 8 7 7 8 8 7 5 4 6 6 4 5 7 7 5 6 5 5 5 4 6 11 9 1 -1 1 2 1 -0 1 3 4 3 1 3 5 5 3 2 3 6 5 3 6 4 0 9 13 5 13 26 23 21 26 19 6 4 5 6 6 2 -2
36 33 38 49 48 35 30 32 35 35 32 29 28 26 22 20 18 16 16 16 16 14 12 12 11 10 9 8 7 8 10 9 6 4 5 6 6 7 8 8 7 5 4 4 3 0 3 8 7 4 1 -2 -2 2 8 9 3 1 4 3 1 4 4 4 5 4 5 5 1 3 3 -0 5 9 5 6 13 15 15 18 19 13 5 1 6 11 9 2
28 31 35 43 47 43 40 39 38 39 37 33 30 28 25 21 20 20 18 17 18 16 13 13 14 12 11 9 7 7 7 8 9 8 5 6 8 8 8 8 7 6 6 6 4 2 1 1 4 9 9 5 2 4 13 18 10 2 5 6 5 6 6 6 4 2 3 2 -1 1 2 0 3 7 6 4 4 8 13 18 25 22 7 1 7 9 7 3
19 25 32 38 41 40 40 41 42 40 39 36 30 27 26 22 20 21 19 18 20 19 16 14 15 15 13 11 9 7 7 7 9 11 8 5 5 6 8 9 8 8 9 9 7 5 2 1 2 4 6 7 5 -1 -1 5 8 9 10 7 6 9 9 6 2 2 5 2 -0 5 6 3 4 6 4 3 4 7 11 19 30 26 8 2 5 5 4 1
15 21 26 33 38 35 29 32 40 39 36 36 33 28 27 25 21 19 19 20 20 20 20 19 19 19 15 13 12 10 9 9 10 13 12 7 6 7 9 10 9 9 10 11 9 6 5 5 2 1 1 4 7 6 3 2 3 7 11 10 9 9 7 6 6 6 4 -1 -2 5 8 4 6 7 6 5 7 9 13 19 26 21 5 0 3 3 4 3
14 18 20 25 35 35 25 22 29 33 35 37 34 30 31 30 24 21 21 21 21 22 22 20 23 28 22 14 13 12 10 11 13 13 14 12 7 5 9 10 9 10 13 12 10 8 7 6 3 1 1 3 4 5 8 12 9 2 4 9 10 9 8 8 9 8 7 5 4 5 5 4 4 5 5 8 9 8 12 17 20 16 6 -0 0 0 0 1
13 18 18 20 24 26 23 19 18 20 25 32 32 30 36 38 31 26 25 23 20 22 26 21 17 26 31 23 17 14 10 11 14 11 13 17 12 5 5 8 9 13 15 11 8 8 8 9 7 4 4 5 5 7 8 13 17 11 5 6 8 8 7 7 8 7 6 9 9 7 7 6 5 3 3 9 11 7 8 13 17 19 13 5 1 0 2 2
13 18 19 20 19 17 18 20 19 17 17 22 23 20 26 33 33 31 30 28 22 18 27 32 21 18 27 27 23 21 15 14 16 12 11 18 18 7 2 7 13 15 13 10 8 8 9 10 10 10 8 3 6 12 6 5 21 22 -0 -10 -2 3 3 5 7 5 5 7 8 8 8 7 6 7 9 15 16 10 8 10 15 22 21 11 4 3 6 8
13 17 19 20 18 15 14 15 18 18 17 20 21 18 21 24 28 33 32 32 31 20 18 31 33 27 26 26 28 27 20 17 18 15 13 18 22 15 2 3 12 13 10 10 9 8 10 11 11 10 8 5 8 12 7 5 11 1 -16 -12 -0 2 3 5 5 4 3 3 2 3 5 7 6 5 9 15 15 10 7 7 12 19 22 17 8 4 5 8
Height
5891 5890 5890 5889 5888 5887 5887 5886 5885 5885 5884 5884 5883 5882 5882 5881 5881 5880 5880 5880 5880 5879 5879 5878 5878 5878 5878 5879 5879 5880 5881 5881 5881 5882 5881 5882 5883 5884 5884 5885 5885 5887 5888 5889 5890 5891 5892 5893 5893 5895 5895 5896 5896 5897 5897 5898 5898 5897 5896 5897 5897 5897 5897 5896 5896 5896 5898 5900 5902 5902 5901 5901 5900 5900 5900 5899 5899 5899 5899 5899 5899 5899 5900 5900 5900 5900 5901 5901
5890 5890 5889 5888 5887 5887 5886 5885 5884 5884 5883 5883 5882 5882 5881 5881 5880 5880 5879 5879 5879 5879 5878 5878 5877 5877 5877 5877 5878 5878 5879 5880 5880 5880 5881 5881 5882 5883 5883 5884 5884 5886 5887 5888 5889 5890 5890 5891 5892 5893 5894 5895 5896 5896 5897 5897 5897 5896 5897 5898 5898 5898 5898 5897 5896 5895 5897 5899 5901 5902 5902 5902 5901 5901 5900 5899 5899 5899 5900 5900 5900 5899 5899 5900 5900 5900 5900 5900
5889 5889 5888 5887 5886 5886 5885 5884 5884 5883 5882 5882 5881 5881 5881 5880 5880 5879 5879 5878 5878 5878 5877 5877 5877 5876 5876 5875 5876 5877 5878 5878 5879 5879 5880 5880 5880 5881 5882 5883 5884 5885 5886 5886 5887 5887 5888 5889 5890 5892 5893 5894 5895 5895 5897 5897 5896 5896 5897 5898 5898 5898 5898 5897 5896 5895 5896 5897 5899 5900 5902 5903 5902 5901 5900 5899 5899 5899 5900 5900 5900 5900 5899 5899 5899 5900 5900 5900
5888 5888 5887 5886 5885 5885 5884 5883 5883 5882 5881 5881 5880 5880 5880 5879 5879 5879 5878 5878 5877 5877 5877 5876 5876 5875 5875 5874 5874 5875 5875 5876 5877 5878 5879 5879 5879 5880 5880 5882 5883 5883 5884 5884 5884 5885 5886 5887 5889 5891 5892 5893 5894 5895 5896 5896 5896 5896 5897 5899 5899 5898 5897 5896 5896 5895 5894 5896 5898 5899 5901 5903 5903 5901 5900 5899 5899 5899 5900 5900 5900 5900 5899 5899 5899 5899 5899 5899
5887 5887 5886 5885 5884 5884 5883 5882 5881 5881 5880 5879 5879 5879 5878 5878 5878 5878 5878 5877 5877 5876 5876 5875 5875 5875 5874 5873 5873 5873 5874 5874 5875 5876 5877 5878 5878 5879 5879 5880 5881 5882 5882 5882 5883 5884 5886 5888 5889 5890 5892 5893 5894 5895 5895 5895 5895 5896 5897 5898 5899 5898 5897 5896 5896 5895 5894 5895 5897 5898 5901 5903 5903 5902 5901 5900 5899 5899 5899 5900 5900 5900 5900 5899 5899 5899 5899 5899
5886 5885 5885 5884 5883 5882 5881 5881 5880 5879 5879 5878 5878 5877 5877 5877 5877 5877 5876 5876 5876 5875 5875 5874 5874 5874 5873 5873 5872 5872 5872 5873 5874 5874 5875 5876 5877 5877 5878 5879 5879 5880 5881 5882 5882 5883 5885 5887 5888 5890 5891 5893 5894 5894 5894 5894 5894 5895 5896 5897 5898 5898 5897 5896 5895 5895 5894 5895 5896 5897 5899 5902 5902 5902 5902 5901 5900 5899 5900 5901 5901 5900 5900 5899 5899 5898 5898 5898
5885 5884 5883 5883 5882 5881 5880 5879 5879 5878 5877 5877 5876 5876 5876 5875 5875 5875 5875 5875 5875 5874 5874 5873 5873 5873 5872 5872 5871 5871 5871 5871 5872 5873 5874 5875 5876 5876 5877 5877 5878 5879 5880 5881 5882 5883 5884 5886 5888 5890 5890 5892 5893 5893 5893 5893 5893 5894 5895 5895 5897 5898 5896 5895 5894 5894 5894 5894 5895 5896 5898 5900 5901 5902 5903 5902 5901 5900 5901 5901 5902 5901 5900 5899 5898 5898 5898 5897
5883 5882 5882 5881 5880 5880 5879 5878 5877 5877 5876 5875 5875 5874 5874 5874 5874 5874 5874 5874 5873 5873 5873 5872 5872 5872 5872 5871 5871 5870 5870 5869 5870 5871 5872 5873 5874 5875 5876 5876 5877 5878 5879 5880 5881 5882 5883 5885 5887 5888 5889 5892 5892 5891 5891 5892 5892 5892 5893 5894 5895 5896 5896 5894 5893 5893 5893 5894 5895 5895 5897 5899 5900 5902 5903 5903 5902 5901 5901 5902 5902 5901 5900 5899 5898 5898 5898 5897
5880 5880 5879 5879 5878 5878 5877 5877 5876 5875 5874 5874 5873 5873 5872 5872 5872 5872 5872 5872 5872 5872 5871 5871 5871 5871 5871 5870 5870 5870 5869 5868 5868 5870 5870 5870 5872 5873 5874 5875 5876 5877 5877 5878 5879 5880 5882 5884 5885 5887 5888 5889 5889 5890 5890 5891 5892 5891 5891 5891 5892 5894 5896 5895 5894 5893 5893 5893 5894 5894 5896 5898 5899 5901 5903 5903 5902 5902 5902 5902 5902 5901 5899 5899 5898 5898 5897 5897
5878 5878 5877 5876 5876 5876 5875 5875 5874 5873 5873 5872 5871 5871 5871 5870 5870 5870 5870 5870 5871 5870 5870 5870 5870 5869 5869 5869 5869 5869 5868 5867 5867 5868 5868 5869 5869 5871 5872 5873 5874 5875 5876 5876 5877 5879 5881 5883 5883 5884 5884 5885 5887 5888 5888 5890 5891 5890 5889 5890 5892 5894 5895 5896 5894 5892 5892 5892 5893 5894 5895 5896 5898 5900 5903 5903 5902 5901 5901 5901 5901 5900 5899 5898 5898 5898 5897 5897
5877 5876 5875 5874 5874 5873 5873 5873 5872 5871 5871 5870 5869 5869 5869 5869 5869 5869 5868 5869 5869 5869 5869 5869 5868 5868 5868 5868 5868 5868 5867 5867 5866 5866 5867 5867 5868 5868 5870 5871 5872 5873 5875 5875 5876 5878 5880 5880 5880 5879 5880 5882 5885 5886 5887 5889 5889 5888 5888 5890 5892 5893 5893 5895 5894 5892 5891 5891 5892 5893 5894 5894 5896 5899 5901 5902 5902 5901 5900 5900 5900 5900 5900 5899 5898 5897 5897 5897
5874 5874 5873 5872 5872 5871 5871 5870 5870 5869 5869 5868 5867 5867 5867 5867 5868 5867 5866 5867 5867 5867 5867 5867 5867 5867 5867 5866 5866 5866 5866 5866 5865 5865 5865 5866 5866 5867 5868 5869 5870 5871 5873 5874 5875 5876 5877 5877 5876 5877 5881 5882 5883 5884 5885 5886 5886 5886 5887 5889 5892 5892 5893 5894 5893 5891 5891 5891 5890 5891 5892 5893 5895 5897 5899 5901 5901 5901 5900 5899 5899 5899 5899 5899 5898 5897 5897 5897
5872 5871 5871 5870 5869 5869 5869 5868 5867 5867 5866 5866 5865 5865 5866 5866 5866 5865 5864 5865 5865 5865 5866 5866 5866 5865 5865 5864 5865 5865 5865 5865 5864 5863 5864 5864 5865 5866 5866 5867 5868 5869 5871 5872 5873 5874 5874 5874 5874 5877 5880 5879 5881 5883 5883 5884 5884 5885 5886 5888 5890 5891 5892 5892 5890 5889 5890 5890 5889 5890 5891 5892 5893 5895 5898 5899 5900 5901 5900 5899 5899 5898 5899 5899 5898 5897 5897 5897
5870 5869 5868 5867 5867 5866 5866 5866 5865 5864 5863 5863 5863 5863 5864 5864 5864 5863 5863 5862 5863 5864 5864 5864 5864 5864 5863 5863 5864 5864 5864 5863 5863 5862 5863 5863 5863 5864 5864 5865 5866 5867 5869 5870 5871 5871 5871 5871 5873 5875 5876 5877 5880 5880 5880 5882 5882 5883 5884 5886 5888 5889 5891 5890 5889 5888 5890 5889 5889 5890 5890 5891 5893 5895 5897 5898 5899 5900 5900 5899 5899 5898 5898 5898 5898 5897 5897 5897
5867 5866 5865 5865 5864 5864 5864 5864 5863 5862 5861 5861 5861 5861 5862 5862 5861 5861 5860 5861 5861 5862 5862 5862 5862 5862 5861 5861 5863 5863 5861 5861 5862 5862 5862 5862 5862 5862 5862 5863 5864 5864 5866 5867 5868 5869 5868 5869 5871 5872 5873 5876 5877 5876 5878 5879 5880 5881 5882 5884 5887 5888 5889 5889 5888 5888 5889 5889 5888 5889 5890 5891 5893 5894 5896 5898 5899 5899 5900 5899 5899 5898 5898 5897 5898 5898 5897 5897
5864 5863 5862 5862 5861 5861 5861 5861 5861 5859 5858 5858 5858 5858 5859 5859 5858 5858 5858 5858 5859 5860 5860 5860 5860 5860 5859 5859 5861 5860 5859 5860 5861 5861 5861 5861 5861 5861 5861 5861 5862 5862 5863 5864 5865 5866 5866 5867 5869 5870 5872 5873 5873 5873 5876 5877 5877 5879 5880 5883 5885 5886 5887 5887 5887 5886 5887 5887 5887 5888 5890 5891 5892 5894 5896 5897 5898 5899 5899 5899 5899 5898 5898 5897 5898 5898 5897 5897
5861 5860 5859 5859 5858 5858 5858 5858 5858 5857 5855 5856 5856 5855 5856 5857 5855 5855 5855 5856 5857 5857 5857 5858 5858 5858 5857 5857 5858 5858 5858 5859 5859 5860 5859 5859 5859 5860 5860 5860 5860 5860 5860 5860 5861 5862 5863 5865 5867 5868 5869 5871 5871 5872 5873 5874 5876 5878 5879 5882 5884 5885 5886 5886 5886 5885 5885 5886 5887 5888 5889 5890 5892 5894 5896 5897 5898 5899 5899 5899 5899 5898 5898 5897 5898 5898 5898 5897
5857 5857 5856 5855 5855 5854 5854 5854 5855 5853 5852 5853 5853 5853 5853 5853 5853 5852 5853 5853 5854 5854 5854 5855 5856 5856 5855 5854 5854 5855 5857 5857 5857 5858 5857 5856 5857 5858 5858 5858 5858 5858 5858 5858 5859 5860 5861 5863 5865 5866 5867 5868 5869 5870 5870 5874 5877 5878 5879 5881 5883 5884 5885 5886 5886 5885 5885 5886 5886 5887 5888 5889 5892 5893 5895 5897 5898 5899 5899 5899 5899 5898 5897 5897 5898 5898 5898 5898
5854 5853 5852 5851 5851 5850 5850 5851 5851 5850 5849 5849 5850 5850 5849 5850 5850 5850 5850 5851 5851 5851 5852 5853 5854 5854 5853 5852 5850 5852 5854 5855 5855 5856 5856 5855 5854 5855 5856 5856 5857 5857 5857 5857 5858 5858 5859 5860 5861 5863 5865 5866 5868 5869 5871 5874 5876 5877 5878 5879 5880 5881 5883 5884 5885 5884 5885 5885 5885 5886 5887 5889 5891 5892 5894 5896 5897 5898 5899 5899 5899 5898 5896 5896 5897 5898 5898 5898
5849 5849 5848 5847 5846 5846 5846 5846 5846 5846 5846 5845 5846 5846 5846 5846 5845 5846 5848 5848 5848 5848 5849 5850 5851 5851 5850 5849 5848 5849 5851 5852 5853 5853 5854 5854 5853 5853 5854 5854 5855 5856 5856 5856 5857 5857 5856 5857 5858 5861 5864 5865 5866 5868 5870 5873 5874 5874 5875 5876 5877 5878 5880 5883 5883 5883 5883 5884 5885 5885 5886 5888 5889 5891 5893 5894 5896 5897 5898 5899 5898 5897 5896 5896 5897 5897 5897 5898
5845 5844 5844 5843 5842 5841 5841 5842 5842 5842 5842 5842 5842 5841 5842 5842 5841 5842 5844 5846 5845 5845 5846 5847 5848 5849 5848 5845 5845 5846 5848 5849 5851 5851 5851 5852 5852 5852 5852 5852 5853 5855 5855 5855 5854 5854 5854 5855 5858 5860 5861 5863 5864 5865 5867 5869 5871 5871 5872 5874 5875 5876 5879 5881 5881 5882 5882 5883 5884 5884 5884 5885 5887 5889 5891 5893 5894 5896 5898 5898 5898 5897 5896 5896 5896 5897 5897 5897
5840 5839 5839 5838 5837 5836 5836 5837 5837 5837 5837 5838 5838 5837 5837 5837 5837 5838 5840 5843 5842 5840 5843 5844 5844 5847 5845 5841 5841 5843 5846 5848 5848 5847 5848 5849 5850 5851 5851 5850 5851 5853 5853 5852 5852 5852 5852 5855 5857 5858 5858 5859 5860 5862 5864 5866 5868 5869 5870 5872 5872 5875 5878 5879 5880 5881 5881 5881 5883 5882 5882 5882 5884 5886 5888 5890 5892 5895 5896 5897 5898 5897 5896 5896 5895 5896 5897 5897
5834 5834 5834 5834 5832 5831 5831 5831 5832 5832 5832 5833 5833 5833 5832 5832 5832 5833 5835 5839 5839 5836 5837 5840 5841 5843 5842 5838 5837 5840 5844 5846 5844 5845 5845 5846 5847 5848 5848 5849 5850 5850 5849 5850 5851 5851 5852 5855 5855 5854 5855 5856 5857 5859 5861 5862 5865 5866 5867 5869 5871 5874 5875 5877 5879 5880 5879 5879 5881 5880 5879 5879 5880 5881 5884 5887 5890 5893 5895 5896 5897 5897 5897 5896 5895 5895 5896 5897
5829 5829 5829 5828 5828 5826 5825 5826 5826 5826 5827 5828 5828 5828 5827 5827 5827 5828 5829 5832 5837 5835 5831 5833 5836 5840 5839 5833 5832 5837 5842 5842 5841 5842 5842 5843 5844 5843 5845 5847 5847 5846 5847 5848 5849 5849 5851 5853 5851 5851 5852 5853 5854 5856 5857 5859 5862 5864 5865 5867 5871 5873 5873 5875 5878 5878 5877 5877 5878 5878 5876 5874 5875 5877 5880 5884 5887 5890 5892 5894 5895 5896 5896 5896 5895 5895 5895 5897
5822 5822 5823 5823 5822 5821 5820 5820 5820 5821 5822 5822 5823 5823 5822 5822 5822 5824 5824 5825 5831 5834 5829 5827 5830 5834 5834 5831 5831 5834 5836 5838 5839 5838 5838 5840 5840 5840 5841 5842 5843 5844 5845 5846 5846 5847 5850 5849 5848 5848 5849 5850 5851 5853 5854 5857 5859 5861 5863 5866 5871 5873 5873 5874 5875 5875 5874 5875 5876 5875 5872 5872 5873 5874 5877 5881 5884 5887 5890 5892 5894 5895 5895 5895 5895 5895 5894 5895
5816 5816 5816 5816 5817 5817 5815 5814 5814 5815 5816 5816 5817 5818 5817 5817 5816 5818 5820 5818 5823 5830 5827 5823 5824 5827 5829 5829 5829 5829 5831 5836 5835 5831 5835 5837 5836 5837 5837 5838 5840 5842 5843 5843 5843 5845 5847 5846 5846 5846 5847 5847 5848 5849 5852 5854 5856 5858 5862 5866 5869 5871 5871 5872 5872 5871 5871 5873 5874 5872 5870 5870 5870 5872 5876 5878 5880 5884 5887 5889 5892 5893 5893 5894 5894 5894 5894 5894
5808 5808 5809 5809 5810 5811 5809 5808 5808 5809 5810 5810 5811 5812 5811 5812 5811 5812 5814 5812 5816 5823 5822 5820 5820 5822 5824 5825 5825 5825 5828 5832 5828 5827 5832 5833 5832 5833 5833 5835 5837 5839 5839 5839 5840 5843 5844 5843 5843 5844 5844 5844 5846 5848 5851 5851 5853 5857 5862 5863 5865 5867 5868 5870 5870 5868 5868 5871 5870 5868 5868 5867 5866 5869 5874 5875 5877 5880 5883 5886 5890 5891 5892 5893 5893 5893 5894 5894
5800 5800 5801 5801 5802 5804 5804 5803 5803 5803 5804 5804 5804 5805 5806 5805 5805 5806 5807 5806 5809 5815 5817 5816 5816 5817 5818 5820 5821 5821 5824 5826 5823 5824 5828 5827 5827 5829 5830 5832 5834 5834 5835 5834 5838 5841 5840 5840 5841 5841 5842 5842 5845 5848 5849 5849 5851 5857 5860 5859 5861 5864 5865 5867 5866 5865 5867 5867 5864 5865 5866 5864 5863 5866 5870 5871 5872 5875 5880 5884 5887 5889 5890 5891 5892 5893 5893 5893
5791 5792 5793 5794 5794 5795 5797 5797 5798 5798 5796 5796 5797 5798 5799 5799 5799 5800 5800 5800 5803 5808 5811 5812 5811 5811 5812 5814 5816 5816 5818 5820 5818 5819 5821 5822 5824 5826 5827 5829 5829 5829 5830 5831 5835 5837 5836 5837 5838 5838 5839 5841 5844 5846 5846 5846 5849 5855 5856 5855 5859 5861 5862 5863 5862 5862 5864 5859 5857 5863 5864 5861 5861 5864 5866 5866 5868 5872 5877 5881 5884 5887 5888 5889 5891 5892 5892 5893
5783 5782 5783 5785 5785 5786 5789 5790 5792 5793 5789 5788 5790 5791 5792 5793 5793 5793 5792 5795 5799 5802 5804 5806 5805 5804 5805 5808 5810 5811 5812 5813 5813 5814 5816 5818 5820 5821 5823 5824 5823 5824 5826 5827 5832 5834 5833 5834 5835 5836 5837 5839 5841 5842 5842 5843 5848 5852 5850 5851 5854 5856 5858 5860 5858 5860 5858 5851 5853 5861 5862 5859 5858 5861 5863 5864 5867 5873 5875 5877 5880 5884 5886 5887 5889 5890 5891 5892
5775 5773 5773 5775 5776 5778 5780 5780 5783 5786 5783 5781 5781 5783 5784 5785 5786 5785 5786 5791 5794 5795 5797 5799 5799 5798 5799 5802 5804 5806 5806 5807 5808 5808 5811 5814 5815 5816 5818 5819 5819 5821 5822 5825 5830 5831 5829 5830 5833 5835 5836 5837 5837 5838 5839 5840 5844 5846 5845 5847 5850 5851 5854 5854 5854 5855 5849 5844 5851 5859 5860 5856 5853 5857 5862 5863 5867 5871 5872 5873 5877 5880 5883 5885 5887 5889 5890 5890
5766 5765 5764 5764 5765 5769 5771 5771 5772 5775 5776 5775 5773 5774 5776 5776 5777 5778 5781 5786 5787 5788 5789 5791 5792 5794 5794 5796 5799 5801 5802 5802 5803 5804 5806 5809 5810 5812 5815 5816 5817 5817 5819 5824 5828 5826 5825 5828 5831 5832 5833 5834 5834 5834 5835 5837 5839 5840 5841 5843 5844 5845 5847 5846 5846 5846 5841 5843 5852 5858 5858 5852 5847 5854 5861 5862 5865 5868 5870 5872 5873 5876 5880 5882 5884 5887 5888 5888
5757 5756 5755 5754 5755 5757 5760 5762 5763 5762 5765 5767 5766 5766 5766 5767 5769 5773 5776 5778 5779 5782 5782 5782 5785 5788 5789 5791 5794 5796 5797 5799 5799 5799 5801 5803 5805 5807 5810 5811 5811 5812 5815 5820 5821 5820 5821 5824 5826 5827 5830 5830 5830 5832 5833 5834 5836 5836 5837 5838 5839 5840 5840 5839 5841 5842 5841 5845 5851 5856 5854 5846 5844 5852 5858 5860 5863 5866 5868 5870 5870 5874 5877 5879 5881 5883 5885 5886
5747 5747 5746 5744 5745 5747 5748 5751 5753 5753 5753 5755 5758 5758 5756 5758 5763 5766 5768 5769 5772 5775 5774 5774 5778 5781 5783 5786 5787 5789 5791 5793 5795 5795 5796 5797 5799 5802 5805 5807 5807 5808 5812 5814 5814 5816 5818 5819 5822 5825 5828 5828 5828 5831 5833 5834 5834 5834 5836 5836 5835 5837 5836 5836 5840 5841 5842 5845 5848 5851 5847 5840 5843 5851 5856 5860 5862 5863 5866 5867 5868 5871 5874 5877 5878 5879 5881 5883
5737 5735 5734 5734 5736 5737 5736 5739 5742 5743 5742 5743 5746 5747 5748 5752 5755 5756 5758 5761 5764 5767 5768 5768 5770 5773 5776 5779 5781 5782 5784 5787 5788 5788 5789 5790 5793 5797 5801 5803 5804 5805 5807 5809 5811 5814 5814 5817 5822 5823 5823 5824 5825 5829 5830 5829 5830 5831 5832 5831 5831 5835 5837 5837 5839 5840 5842 5843 5843 5844 5841 5839 5844 5849 5854 5858 5859 5860 5863 5864 5866 5868 5871 5874 5874 5876 5878 5880
5725 5723 5722 5724 5726 5726 5726 5727 5730 5731 5732 5732 5733 5736 5741 5744 5745 5746 5749 5752 5755 5758 5760 5760 5762 5764 5767 5770 5772 5774 5778 5780 5780 5780 5782 5784 5786 5790 5794 5797 5799 5800 5802 5805 5808 5809 5809 5815 5819 5817 5817 5820 5822 5825 5825 5824 5826 5827 5825 5826 5830 5836 5838 5836 5836 5839 5840 5837 5837 5838 5838 5839 5843 5846 5850 5854 5855 5858 5860 5862 5864 5866 5868 5870 5871 5873 5875 5877
5712 5710 5709 5711 5714 5715 5715 5715 5717 5719 5720 5721 5722 5727 5732 5733 5734 5736 5738 5741 5744 5748 5751 5752 5753 5755 5756 5759 5763 5767 5770 5772 5772 5773 5776 5778 5779 5782 5787 5791 5794 5795 5797 5800 5802 5803 5805 5809 5812 5810 5812 5817 5819 5819 5819 5819 5821 5822 5822 5827 5831 5832 5832 5831 5831 5834 5834 5831 5832 5836 5836 5837 5839 5841 5846 5850 5853 5855 5858 5860 5862 5864 5865 5867 5868 5871 5872 5874
5698 5696 5695 5698 5702 5703 5702 5703 5705 5705 5706 5709 5713 5717 5719 5721 5724 5726 5726 5730 5734 5737 5740 5742 5744 5745 5747 5750 5754 5758 5762 5763 5765 5767 5770 5771 5771 5775 5779 5783 5786 5788 5792 5794 5795 5797 5799 5801 5805 5806 5808 5812 5813 5811 5810 5812 5816 5818 5822 5825 5825 5824 5825 5826 5825 5826 5828 5827 5828 5832 5833 5834 5835 5838 5843 5847 5850 5853 5856 5858 5860 5862 5864 5864 5866 5868 5870 5872
5683 5681 5680 5684 5690 5690 5688 5688 5691 5691 5692 5697 5701 5704 5706 5709 5713 5714 5715 5718 5722 5724 5728 5731 5734 5736 5738 5741 5744 5748 5752 5754 5757 5760 5763 5763 5763 5766 5770 5773 5777 5781 5785 5786 5787 5791 5793 5794 5799 5802 5803 5806 5805 5801 5802 5808 5813 5816 5817 5817 5818 5819 5821 5822 5821 5822 5825 5826 5826 5829 5830 5830 5832 5837 5841 5844 5848 5850 5853 5855 5858 5860 5862 5863 5865 5866 5868 5870
5666 5665 5663 5669 5676 5676 5673 5673 5675 5677 5679 5684 5688 5690 5693 5696 5699 5702 5704 5706 5709 5712 5715 5718 5722 5726 5729 5732 5734 5738 5742 5745 5749 5752 5754 5756 5756 5758 5763 5766 5770 5774 5776 5777 5780 5784 5786 5785 5790 5797 5798 5797 5795 5794 5799 5808 5811 5811 5811 5811 5813 5815 5816 5818 5818 5819 5822 5823 5824 5826 5825 5826 5832 5837 5839 5842 5845 5847 5850 5853 5855 5859 5861 5861 5863 5865 5866 5868
5649 5647 5645 5653 5660 5659 5658 5657 5658 5662 5665 5669 5672 5675 5679 5682 5686 5689 5691 5693 5696 5700 5703 5706 5710 5715 5719 5722 5725 5728 5731 5735 5739 5742 5745 5749 5748 5750 5756 5760 5762 5766 5770 5770 5771 5774 5776 5777 5783 5790 5791 5788 5790 5794 5800 5805 5807 5806 5807 5809 5811 5813 5813 5812 5812 5815 5818 5819 5821 5822 5820 5824 5832 5835 5837 5840 5842 5844 5847 5850 5853 5856 5858 5859 5860 5862 5864 5865
5632 5629 5627 5634 5641 5641 5641 5640 5642 5648 5652 5653 5656 5660 5664 5669 5672 5675 5677 5680 5683 5688 5691 5693 5697 5702 5706 5710 5715 5718 5720 5724 5728 5731 5735 5739 5739 5742 5749 5752 5753 5757 5762 5762 5764 5767 5769 5771 5775 5781 5784 5784 5789 5794 5796 5798 5801 5800 5800 5803 5807 5808 5808 5808 5810 5815 5817 5816 5817 5819 5816 5821 5830 5833 5835 5838 5839 5840 5843 5847 5850 5852 5853 5855 5856 5859 5861 5863
5616 5614 5611 5615 5620 5623 5624 5624 5626 5633 5636 5637 5642 5646 5650 5654 5657 5660 5663 5666 5671 5675 5677 5679 5684 5689 5693 5698 5704 5707 5710 5713 5716 5720 5724 5727 5730 5735 5741 5743 5745 5750 5753 5755 5759 5761 5764 5766 5767 5772 5778 5781 5784 5788 5788 5790 5792 5791 5792 5796 5800 5801 5804 5808 5811 5814 5814 5812 5814 5816 5813 5818 5828 5831 5832 5834 5836 5837 5839 5842 5846 5848 5850 5852 5853 5855 5858 5859
5602 5601 5599 5598 5600 5604 5608 5608 5611 5616 5619 5623 5628 5631 5634 5638 5641 5645 5648 5653 5658 5660 5662 5667 5671 5674 5679 5685 5691 5696 5700 5702 5705 5709 5713 5717 5721 5726 5732 5735 5738 5742 5745 5748 5751 5754 5757 5759 5759 5763 5770 5772 5774 5776 5776 5778 5781 5783 5786 5790 5795 5799 5803 5805 5807 5808 5807 5807 5810 5810 5808 5814 5825 5828 5829 5831 5832 5833 5835 5838 5841 5844 5846 5848 5850 5853 5854 5856
5591 5591 5590 5586 5585 5588 5592 5594 5597 5601 5603 5607 5613 5615 5618 5622 5626 5630 5635 5639 5642 5645 5650 5655 5658 5661 5665 5671 5677 5684 5689 5692 5695 5698 5701 5706 5711 5716 5722 5726 5729 5733 5736 5739 5742 5746 5749 5751 5752 5757 5762 5763 5765 5767 5769 5774 5777 5779 5783 5787 5792 5796 5798 5799 5801 5800 5799 5802 5806 5805 5805 5811 5821 5825 5826 5828 5829 5831 5832 5834 5836 5840 5843 5845 5847 5849 5850 5852
5582 5582 5582 5579 5574 5575 5577 5580 5584 5587 5588 5593 5597 5600 5603 5607 5611 5615 5621 5624 5626 5631 5637 5641 5644 5647 5651 5656 5664 5671 5677 5681 5685 5688 5691 5696 5701 5706 5711 5715 5719 5724 5727 5730 5734 5738 5740 5743 5747 5750 5753 5757 5760 5764 5770 5775 5776 5777 5781 5785 5788 5791 5793 5795 5795 5793 5795 5800 5801 5803 5805 5809 5816 5822 5824 5825 5827 5828 5830 5831 5832 5835 5838 5840 5843 5845 5847 5848
5576 5574 5574 5572 5569 5566 5567 5569 5572 5575 5576 5580 5583 5585 5588 5593 5596 5601 5606 5609 5612 5618 5623 5626 5629 5633 5639 5645 5652 5659 5664 5668 5674 5679 5682 5687 5691 5696 5700 5705 5709 5714 5718 5721 5725 5729 5732 5736 5739 5741 5744 5750 5754 5759 5765 5768 5770 5773 5777 5780 5784 5787 5789 5789 5787 5788 5794 5796 5796 5802 5807 5807 5811 5818 5821 5822 5824 5825 5827 5829 5829 5832 5834 5837 5839 5841 5843 5845
5573 5570 5567 5566 5565 5562 5560 5561 5563 5564 5566 5569 5572 5573 5575 5579 5583 5588 5593 5595 5600 5605 5608 5612 5616 5621 5627 5632 5638 5645 5650 5656 5663 5668 5672 5678 5683 5687 5691 5695 5700 5705 5709 5712 5716 5720 5724 5729 5731 5732 5737 5744 5749 5755 5759 5760 5762 5767 5771 5774 5779 5782 5784 5783 5783 5787 5791 5790 5793 5802 5806 5804 5807 5813 5816 5819 5822 5823 5825 5826 5827 5829 5832 5834 5836 5838 5840 5842
5569 5567 5564 5562 5561 5559 5558 5557 5557 5558 5559 5561 5563 5565 5566 5569 5572 5576 5581 5584 5589 5593 5594 5599 5603 5608 5613 5618 5624 5631 5638 5645 5651 5656 5662 5669 5674 5679 5682 5686 5690 5696 5701 5703 5706 5711 5716 5721 5722 5724 5730 5737 5742 5748 5753 5754 5756 5759 5763 5768 5772 5776 5779 5780 5782 5786 5787 5788 5793 5799 5799 5800 5804 5808 5811 5815 5818 5820 5822 5822 5823 5825 5827 5829 5832 5834 5836 5838
5566 5564 5562 5560 5558 5556 5556 5556 5555 5556 5555 5555 5558 5560 5560 5562 5565 5567 5571 5575 5580 5582 5583 5586 5591 5596 5601 5606 5611 5618 5625 5630 5637 5645 5653 5659 5665 5671 5674 5677 5682 5688 5692 5696 5698 5702 5707 5712 5714 5717 5723 5729 5735 5741 5746 5749 5750 5752 5755 5761 5766 5770 5773 5775 5777 5780 5782 5784 5789 5792 5792 5796 5801 5804 5806 5810 5813 5815 5817 5818 5820 5822 5823 5825 5828 5829 5831 5834
5564 5561 5560 5559 5557 5555 5554 5555 5554 5554 5553 5553 5555 5555 5556 5558 5559 5562 5565 5568 5572 5575 5574 5576 5581 5586 5590 5594 5599 5606 5611 5616 5625 5636 5643 5648 5655 5661 5664 5669 5674 5678 5684 5688 5691 5694 5699 5703 5707 5710 5714 5722 5730 5733 5737 5742 5744 5745 5747 5752 5758 5762 5766 5769 5772 5774 5776 5780 5784 5785 5786 5792 5799 5802 5803 5805 5808 5810 5812 5815 5817 5818 5819 5821 5823 5825 5828 5830
5562 5559 5558 5557 5556 5554 5553 5553 5553 5553 5552 5552 5553 5553 5554 5555 5555 5558 5561 5563 5566 5569 5569 5570 5573 5576 5581 5586 5590 5594 5599 5605 5615 5623 5628 5634 5643 5650 5655 5660 5665 5669 5676 5681 5683 5687 5691 5694 5700 5703 5705 5715 5723 5723 5728 5734 5734 5735 5740 5747 5752 5755 5760 5764 5767 5769 5772 5776 5778 5779 5782 5790 5797 5798 5798 5800 5803 5805 5808 5811 5812 5813 5815 5817 5819 5822 5824 5826